TimeEDT,TemperatureF,Dew PointF,Humidity,Sea Level PressureIn,VisibilityMPH,Wind Direction,Wind SpeedMPH,Gust SpeedMPH,PrecipitationIn,Events,Conditions,WindDirDegrees,DateUTC
12:56 AM,33.1,15.1,48,30.03,10.0,WNW,16.1,23.0,N/A,,Overcast,300,2013-03-14 04:56:00
1:56 AM,32.0,15.1,50,30.03,10.0,West,10.4,-,N/A,,Partly Cloudy,280,2013-03-14 05:56:00
2:56 AM,30.9,17.1,57,30.03,10.0,West,11.5,19.6,N/A,,Scattered Clouds,280,2013-03-14 06:56:00
3:56 AM,32.0,16.0,52,30.01,10.0,West,9.2,-,N/A,,Overcast,280,2013-03-14 07:56:00
4:56 AM,33.1,15.1,48,30.01,10.0,NW,16.1,27.6,N/A,,Overcast,310,2013-03-14 08:56:00
5:56 AM,32.0,16.0,52,30.02,10.0,West,18.4,24.2,N/A,,Overcast,280,2013-03-14 09:56:00
6:56 AM,30.9,15.1,52,30.04,10.0,WNW,15.0,25.3,N/A,,Mostly Cloudy,290,2013-03-14 10:56:00
7:56 AM,30.9,12.9,47,30.06,10.0,WNW,12.7,25.3,N/A,,Mostly Cloudy,300,2013-03-14 11:56:00
8:56 AM,32.0,10.9,42,30.07,10.0,WNW,23.0,32.2,N/A,,Mostly Cloudy,300,2013-03-14 12:56:00
9:56 AM,33.1,10.9,40,30.09,10.0,NW,25.3,38.0,N/A,,Mostly Cloudy,310,2013-03-14 13:56:00
10:56 AM,35.1,10.9,37,30.07,10.0,NW,21.9,31.1,N/A,,Clear,320,2013-03-14 14:56:00
11:56 AM,36.0,10.9,36,30.07,10.0,NW,19.6,36.8,N/A,,Partly Cloudy,310,2013-03-14 15:56:00
12:56 PM,37.0,12.0,36,30.05,10.0,WNW,15.0,29.9,N/A,,Mostly Cloudy,290,2013-03-14 16:56:00
1:56 PM,39.9,10.9,31,30.03,10.0,NW,21.9,33.4,N/A,,Partly Cloudy,310,2013-03-14 17:56:00
2:56 PM,42.1,12.0,29,30.02,10.0,NW,17.3,31.1,N/A,,Scattered Clouds,310,2013-03-14 18:56:00
3:56 PM,39.9,12.0,32,30.01,10.0,WNW,20.7,39.1,N/A,,Partly Cloudy,300,2013-03-14 19:56:00
4:56 PM,39.9,14.0,35,30.01,10.0,WNW,17.3,28.8,N/A,,Clear,290,2013-03-14 20:56:00
5:56 PM,39.0,12.0,33,30.01,10.0,WNW,17.3,28.8,N/A,,Clear,290,2013-03-14 21:56:00
6:56 PM,37.9,10.0,32,30.02,10.0,WNW,17.3,25.3,N/A,,Clear,300,2013-03-14 22:56:00
7:56 PM,37.0,10.9,34,30.03,10.0,WNW,13.8,28.8,N/A,,Clear,290,2013-03-14 23:56:00
8:56 PM,36.0,10.9,36,30.05,10.0,WNW,13.8,20.7,N/A,,Clear,300,2013-03-15 00:56:00
9:56 PM,35.1,10.0,35,30.06,10.0,WNW,13.8,19.6,N/A,,Clear,300,2013-03-15 01:56:00
10:56 PM,35.1,10.9,37,30.06,10.0,NW,12.7,-,N/A,,Clear,310,2013-03-15 02:56:00
11:56 PM,34.0,10.0,37,30.07,10.0,WNW,13.8,19.6,N/A,,Clear,300,2013-03-15 03:56:00